Location: Hall+in+Tirol
(47.2830°N, 11.5170°E)
Time: 08:54:37
(UTC+02:00)

Daily predictions for brighter satellites

Satellite Brightness Start Highest point End
(mag) Time Altitude Azimuth Time Altitude Azimuth Time Altitude Azimuth
Cosmos 2151 3.8 21:45:47 10° SSE 21:49:32 32° E 21:53:18 10° NNE
SL-23 DEB 4.2 21:46:30 10° WNW 21:52:27 86° SSW 21:56:04 10° ESE
Cosmos 1151 Rocket 3.1 21:48:21 10° N 21:52:38 65° E 21:56:55 10° SSE
ATLAS 5 CENTAUR R/B 3.1 21:48:36 10° WSW 21:53:25 49° NW 21:58:40 10° NNE
Cosmos 1437 Rocket 2.7 21:49:38 10° NNW 21:53:27 89° W 21:57:17 10° S
Cosmos 1674 2.9 21:52:34 10° S 21:56:17 51° E 22:00:03 10° NNE
DELTA 2 R/B (1) 4.3 21:52:15 10° WSW 21:57:17 36° S 22:02:19 10° ESE
Envisat 3.3 21:52:15 10° S 21:57:18 70° WSW 22:02:25 10° NNW
Cosmos 2112 Rocket 4.3 21:55:45 10° NNW 22:00:56 58° ENE 22:06:06 10° SE
Cosmos 1300 3.9 21:58:00 10° NNE 22:01:24 28° ENE 22:04:45 10° SE
Cosmos 2219 Rocket 3.6 21:59:22 10° N 22:04:03 26° NE 22:08:43 10° ESE
CZ-4 SHROUD 3.7 22:04:13 10° S 22:07:19 61° WSW 22:10:27 10° NNW
ERS-1 Rocket 4.5 22:03:17 10° SSW 22:07:50 34° W 22:12:27 10° NNW
Cosmos 1707 Rocket 4.3 22:03:55 10° N 22:07:59 37° ENE 22:12:00 10° SE
H-2A R/B 3.5 22:05:31 10° SSW 22:09:45 38° W 22:14:00 10° NNW
CZ-4C R/B 4.1 22:08:34 10° SE 22:11:41 31° ENE 22:14:47 10° N
Cosmos 1777 Rocket 4.0 22:08:36 10° SSW 22:13:52 83° ESE 22:19:09 10° NNE
SPOT 5 3.3 22:10:27 10° S 22:14:54 58° W 22:19:39 10° NNW
ARGOS 3.3 22:10:07 10° SSE 22:15:29 68° ENE 22:20:51 10° N
MetOp-A 4.3 22:10:40 10° S 22:16:00 75° WSW 22:21:24 10° NNW
Cosmos 1328 4.0 22:12:57 10° S 22:16:48 52° E 22:20:39 10° NNE
Cosmos 2058 3.3 22:18:22 10° SSE 22:22:15 44° E 22:26:10 10° NNE
Cosmos 2219 3.7 22:17:22 10° S 22:22:41 40° ESE 22:28:01 10° NE
H-2A R/B 2.8 22:18:08 11° SE 22:22:59 43° ENE 22:28:06 10° N
Cosmos 1455 4.4 22:22:09 10° NE 22:24:13 14° ENE 22:26:18 10° E
Cosmos 2322 3.9 22:21:52 10° NNW 22:27:35 70° WSW 22:33:05 11° SSE
Cosmos 2237 Rocket 3.6 22:25:44 10° N 22:30:40 29° NE 22:35:34 10° ESE
YAOGAN 6 3.2 22:28:30 10° S 22:32:06 53° W 22:35:40 10° NNW
Cosmos 2322 Rocket 4.1 22:29:18 10° NW 22:33:41 24° WSW 22:38:03 10° SSW
SPOT 1/Viking Rocket 3.7 22:29:49 10° S 22:34:57 72° WSW 22:40:08 10° NNW
Cosmos 405 4.3 22:31:42 10° NNW 22:35:06 37° W 22:38:28 10° SSW
Cosmos 2315 Rocket 4.1 22:30:10 10° N 22:36:25 84° W 22:42:37 10° S
Cosmos 1680 Rocket 3.9 22:33:25 10° NNW 22:38:36 62° WSW 22:43:31 11° S
SL-08 RB Rocket 3.7 22:36:05 12° SSE 22:40:12 87° WSW 22:44:44 10° NNW
SL-16 R/B 4.2 22:38:31 10° NW 22:42:45 22° W 22:46:58 10° SSW
Cosmos 2242 Rocket 4.0 22:38:53 10° N 22:43:14 51° ENE 22:46:32 17° SSE
Cosmos 1437 3.2 22:40:48 10° SSW 22:44:03 63° WNW 22:47:20 10° N
USA 229 DEB 3.8 22:37:33 10° SW 22:44:30 84° NW 22:51:35 10° NE
IGS 5A 4.0 22:41:31 16° SE 22:44:35 46° ENE 22:48:36 10° N
USA 229 3.8 22:37:39 10° SW 22:44:35 85° NW 22:51:40 10° NE
Cosmos 2360 Rocket 2.8 22:39:42 10° NW 22:45:09 50° WSW 22:50:20 11° S
SL-14 R/B 3.5 22:43:33 14° S 22:46:44 54° E 22:50:38 10° NNE
Cosmos 1703 4.2 22:45:42 18° SE 22:47:57 31° E 22:51:27 10° NNE
DELTA 2 DEB (DPAF) 4.2 22:45:00 15° SSE 22:48:45 90° E 22:53:16 10° NNW
NOAA 11 4.4 22:44:03 11° S 22:49:17 70° WSW 22:54:46 10° NNW
Meteor 1-11 4.3 22:45:03 10° S 22:50:47 71° E 22:56:30 10° NNE
Cosmos 1271 Rocket 3.0 22:47:46 10° N 22:51:30 51° ENE 22:53:56 20° SE
CZ-4B R/B 3.9 22:46:45 10° N 22:52:02 70° WNW 22:57:14 10° SSW
Cosmos 2150 Rocket 4.5 22:49:40 13° S 22:54:18 45° ESE 22:59:30 10° NNE
DMSP B5D2-2 4.5 22:49:57 10° NNE 22:54:59 45° E 22:58:50 16° SSE
Cosmos 1898 Rocket 3.9 22:52:24 14° S 22:56:35 45° ESE 23:01:31 10° NNE
USA 245 4.4 22:56:43 10° SSW 22:58:54 21° W 23:00:52 10° NW
Cosmos 1726 2.2 22:57:18 10° NNW 23:01:04 76° W 23:03:44 19° S
Landsat 7 3.9 22:59:29 16° S 23:03:18 73° WSW 23:08:05 10° NNW
NOSS 3-1 (A) 3.8 22:58:36 10° S 23:04:09 43° ESE 23:10:17 10° NE
Cosmos 1862 Rocket 4.2 23:02:03 10° N 23:06:13 41° ENE 23:08:40 21° SE
SAR-Lupe-2 3.5 23:05:35 23° SSE 23:07:41 79° ENE 23:11:17 10° NNW
Nadezhda 1 Rocket 4.1 23:03:34 10° N 23:09:37 64° E 23:13:56 20° SSE
Iridium 2 3.8 23:08:24 23° SSE 23:10:38 61° E 23:14:26 10° NNE
Spot 4 3.9 23:08:03 20° SSE 23:11:22 77° ENE 23:16:15 10° NNW
Meteor 2-10 4.3 23:06:00 10° N 23:11:42 77° ENE 23:15:45 20° SSE
CARTOSAT-1 3.6 23:08:48 20° S 23:11:46 79° WSW 23:16:07 10° NNW
Cosmos 2227 Rocket 3.2 23:10:41 20° SE 23:13:16 28° ESE 23:18:01 10° NE
Cosmos 2333 Rocket 2.5 23:09:28 10° NNW 23:15:11 61° ENE 23:19:11 20° SE
Cosmos 292 Rocket 3.7 23:12:35 10° NNW 23:17:23 90° NNW 23:20:18 24° SSE
Cosmos 1633 Rocket 3.1 23:14:02 15° SSW 23:17:40 81° W 23:22:05 10° N
Sich 1 3.2 23:14:40 14° SSW 23:18:30 75° W 23:22:55 10° N
Terra 1.9 23:15:51 20° S 23:19:10 73° WSW 23:23:56 10° NNW
USA 32 4.2 23:15:07 10° N 23:20:23 74° W 23:24:19 18° S
SL-16 R/B 3.5 23:16:34 10° NNW 23:21:39 32° NE 23:26:14 12° ESE
SeaSat 1 3.0 23:19:18 19° SE 23:22:41 52° NE 23:27:29 10° NNW
Cosmos 1745 Rocket 4.0 23:18:38 17° S 23:23:39 77° E 23:29:51 10° NNE
COSMOS 2428 3.3 23:21:15 10° NW 23:26:42 48° WSW 23:30:32 19° S
ATLAS 2AS CENTAUR R/B 3.8 23:23:14 20° SSE 23:27:08 31° ESE 23:33:56 10° NE
CZ-4B R/B 4.0 23:28:58 10° E 23:30:35 13° ENE 23:32:12 10° NE
Spot 2 4.4 23:29:29 10° NNE 23:34:42 87° ESE 23:38:23 19° SSW
Meteor 1-4 Rocket 3.7 23:35:27 10° NNW 23:39:01 39° W 23:41:03 21° SSW
ALOS 2 4.2 23:37:03 16° ESE 23:39:26 25° ENE 23:42:59 10° N
Cosmos 2297 Rocket 3.0 23:38:41 24° SE 23:40:52 32° ESE 23:45:51 10° NE
Cosmos 1626 2.1 23:40:55 34° S 23:42:24 69° E 23:46:10 10° NNE
COSMOS 2455 3.5 23:39:18 10° NNW 23:45:12 51° NE 23:49:38 18° ESE
Lacrosse 4 Rocket 2.9 23:42:17 10° NNW 23:46:16 32° NE 23:49:16 16° ESE
Cosmos 2298 Rocket 4.4 23:41:06 10° SSW 23:46:23 63° WNW 23:51:41 10° NNE
Cosmos 2181 Rocket 4.3 23:41:26 10° N 23:47:43 59° ENE 23:51:29 25° SSE
ATLAS 3B R/B 3.1 23:40:51 10° NW 23:47:56 59° NE 23:53:20 16° ESE
Cosmos 2219 Rocket 2.4 23:42:55 10° NNW 23:48:27 62° WSW 23:51:32 26° S
BREEZE-M DEB (TANK) 4.4 23:50:41 10° E 23:50:41 10° E 23:50:44 10° E
Cosmos 1869 3.3 23:45:10 10° N 23:49:15 86° W 23:50:56 34° S
NOSS 3-1 (C) 3.6 23:46:30 10° SW 23:52:29 81° NW 23:59:13 10° NE
GEOS 3 Rocket 3.6 23:51:16 24° SE 23:54:28 83° NE 23:59:41 10° NW
CZ-4C R/B 4.2 23:54:15 26° ESE 23:55:18 33° ENE 23:58:32 10° N
Cosmos 1346 3.1 23:55:18 45° SSW 23:56:04 72° W 23:59:07 10° N
